WZZ9901 EPKT-EDLW

Flight info

Callsign WZZ9901
Flight time N/A
Altitude 36000
Route ADADO DCT UTEVO DCT ETUDA DCT RAPET T170 RUNEN DCT FULNO/N0448F300 T842 IDEWE/N0410F240 T842 ADEMI ADEMI2A
Aircraft A20N/M-SDE2E3FGHIRWXY/LB1

Departure

Time 2026-04-30 08:00
Airport Katowice Wojciech Korfanty International Airport (EPKT)

Arrival

Time N/A
Airport Dortmund Airport (EDLW)
Time Latitude Longitude Altitude Speed Heading
2026-04-30 07:48 50.47153 19.08671 996 ft 0 kts 180°
2026-04-30 07:48 50.47159 19.08671 996 ft 2 kts 178°
2026-04-30 07:48 50.47174 19.08671 996 ft 2 kts 181°
2026-04-30 07:49 50.47190 19.08671 996 ft 2 kts 179°
2026-04-30 07:49 50.47199 19.08671 996 ft 2 kts 176°
2026-04-30 07:49 50.47213 19.08665 996 ft 2 kts 151°
2026-04-30 07:49 50.47226 19.08651 995 ft 2 kts 131°
2026-04-30 07:50 50.47234 19.08631 995 ft 2 kts 111°
2026-04-30 07:50 50.47237 19.08609 995 ft 1 kts 93°
2026-04-30 07:50 50.47237 19.08600 995 ft 1 kts 88°
2026-04-30 07:50 50.47237 19.08597 995 ft 0 kts 89°
2026-04-30 07:53 50.47237 19.08605 995 ft 1 kts 89°
2026-04-30 07:54 50.47237 19.08632 995 ft 3 kts 89°
2026-04-30 07:54 50.47238 19.08683 995 ft 5 kts 89°
2026-04-30 07:54 50.47237 19.08748 996 ft 6 kts 90°
2026-04-30 07:54 50.47237 19.08826 997 ft 7 kts 90°
2026-04-30 07:55 50.47236 19.08921 998 ft 9 kts 90°
2026-04-30 07:55 50.47236 19.09029 999 ft 10 kts 90°
2026-04-30 07:55 50.47236 19.09151 1000 ft 11 kts 90°
2026-04-30 07:55 50.47237 19.09281 1002 ft 12 kts 89°
2026-04-30 07:56 50.47237 19.09420 1003 ft 13 kts 89°
2026-04-30 07:56 50.47238 19.09568 1005 ft 13 kts 91°
2026-04-30 07:56 50.47237 19.09719 1007 ft 13 kts 90°
2026-04-30 07:56 50.47237 19.09875 1010 ft 14 kts 89°
2026-04-30 07:57 50.47262 19.10023 1011 ft 14 kts 56°
2026-04-30 07:57 50.47327 19.10159 1011 ft 16 kts 52°
2026-04-30 07:57 50.47401 19.10308 1011 ft 17 kts 53°
2026-04-30 07:57 50.47503 19.10410 1010 ft 18 kts
2026-04-30 07:58 50.47599 19.10343 1010 ft 9 kts 285°
2026-04-30 07:58 50.47600 19.10314 1009 ft 1 kts 270°
2026-04-30 07:59 50.47600 19.10313 1009 ft 0 kts 270°
2026-04-30 07:59 50.47601 19.10275 1009 ft 14 kts 270°
2026-04-30 08:00 50.47608 19.08380 995 ft 155 kts 270°
2026-04-30 08:00 50.47609 19.06581 1510 ft 168 kts 270°
2026-04-30 08:00 50.47592 19.04848 2319 ft 166 kts 272°
2026-04-30 08:00 50.47610 19.03056 3074 ft 169 kts 275°
2026-04-30 08:01 50.47633 19.01127 3652 ft 184 kts 275°
2026-04-30 08:01 50.47633 18.99047 4259 ft 198 kts 274°
2026-04-30 08:01 50.47620 18.96815 4847 ft 214 kts 274°
2026-04-30 08:01 50.47610 18.94381 5385 ft 235 kts 274°
2026-04-30 08:02 50.47596 18.88929 6746 ft 264 kts 274°
2026-04-30 08:02 50.47580 18.85997 7487 ft 276 kts 273°
2026-04-30 08:03 50.47494 18.81632 8638 ft 286 kts 272°
2026-04-30 08:03 50.47356 18.73589 10628 ft 299 kts 274°
2026-04-30 08:03 50.47308 18.70265 11293 ft 310 kts 274°
2026-04-30 08:04 50.47263 18.66829 11740 ft 327 kts 273°
2026-04-30 08:04 50.47208 18.63159 12153 ft 345 kts 272°
2026-04-30 08:04 50.46763 18.59354 12481 ft 371 kts 251°
2026-04-30 08:04 50.45296 18.55936 12975 ft 388 kts 225°
2026-04-30 08:05 50.43047 18.53615 13716 ft 390 kts 205°
2026-04-30 08:05 50.40540 18.51848 14453 ft 394 kts 203°
2026-04-30 08:05 50.38028 18.50100 15123 ft 399 kts 204°
2026-04-30 08:05 50.35511 18.48291 15894 ft 401 kts 204°
2026-04-30 08:06 50.32980 18.46429 16568 ft 407 kts 205°
2026-04-30 08:06 50.30524 18.44108 17146 ft 414 kts 223°
2026-04-30 08:06 50.28775 18.40597 17753 ft 413 kts 248°
2026-04-30 08:06 50.27953 18.36339 18412 ft 407 kts 265°
2026-04-30 08:07 50.27519 18.31978 19031 ft 411 kts 267°
2026-04-30 08:07 50.27109 18.27499 19623 ft 416 kts 266°
2026-04-30 08:07 50.26658 18.22972 20244 ft 420 kts 265°
2026-04-30 08:07 50.26174 18.18506 20833 ft 425 kts 265°
2026-04-30 08:08 50.25655 18.13948 21439 ft 430 kts 264°
2026-04-30 08:08 50.25116 18.09355 22037 ft 434 kts 264°
2026-04-30 08:08 50.24558 18.04675 22651 ft 437 kts 264°
2026-04-30 08:08 50.23996 17.99980 23235 ft 441 kts 264°
2026-04-30 08:09 50.23436 17.95333 23792 ft 445 kts 264°
2026-04-30 08:09 50.22852 17.90506 24357 ft 448 kts 264°
2026-04-30 08:09 50.22269 17.85707 24863 ft 453 kts 264°
2026-04-30 08:09 50.21679 17.80854 25329 ft 457 kts 265°
2026-04-30 08:10 50.21209 17.75952 25771 ft 458 kts 269°
2026-04-30 08:10 50.20948 17.70963 26196 ft 460 kts 274°
2026-04-30 08:10 50.20896 17.65996 26607 ft 462 kts 277°
2026-04-30 08:10 50.20925 17.60992 27069 ft 465 kts 277°
2026-04-30 08:11 50.20921 17.55893 27452 ft 473 kts 275°
2026-04-30 08:11 50.20616 17.50737 27824 ft 483 kts 268°
2026-04-30 08:11 50.19951 17.45579 28165 ft 493 kts 261°
2026-04-30 08:11 50.19009 17.40416 28531 ft 498 kts 258°
2026-04-30 08:12 50.17988 17.35206 28872 ft 503 kts 258°
2026-04-30 08:12 50.16929 17.29902 29202 ft 507 kts 258°
2026-04-30 08:12 50.15894 17.24664 29479 ft 511 kts 258°
2026-04-30 08:12 50.14857 17.19369 29758 ft 514 kts 258°
2026-04-30 08:13 50.13815 17.14031 30043 ft 517 kts 258°
2026-04-30 08:13 50.12763 17.08631 30341 ft 519 kts 258°
2026-04-30 08:13 50.11703 17.03210 30725 ft 520 kts 258°
2026-04-30 08:13 50.10649 16.97831 31103 ft 519 kts 258°
2026-04-30 08:14 50.09596 16.92443 31407 ft 520 kts 258°
2026-04-30 08:14 50.08539 16.87072 31751 ft 519 kts 258°
2026-04-30 08:14 50.07491 16.81759 32126 ft 517 kts 258°
2026-04-30 08:14 50.06429 16.76378 32450 ft 517 kts 258°
2026-04-30 08:15 50.05371 16.71055 32803 ft 515 kts 259°
2026-04-30 08:15 50.04327 16.65804 33179 ft 513 kts 259°
2026-04-30 08:15 50.03347 16.60467 33513 ft 509 kts 262°
2026-04-30 08:15 50.02605 16.55088 33817 ft 504 kts 267°
2026-04-30 08:16 50.02127 16.49714 34121 ft 498 kts 272°
2026-04-30 08:16 50.01914 16.44413 34445 ft 492 kts 277°
2026-04-30 08:16 50.01947 16.39108 34727 ft 485 kts 281°
2026-04-30 08:16 50.02201 16.33909 34994 ft 482 kts 283°
2026-04-30 08:17 50.02535 16.28573 35079 ft 483 kts 283°
2026-04-30 08:17 50.02864 16.23407 35248 ft 483 kts 283°
2026-04-30 08:17 50.03183 16.18264 35403 ft 484 kts 283°
2026-04-30 08:17 50.03499 16.12992 35605 ft 483 kts 283°
2026-04-30 08:18 50.03805 16.07772 35849 ft 481 kts 283°
2026-04-30 08:18 50.04102 16.02590 36008 ft 481 kts 282°
2026-04-30 08:18 50.04397 15.97392 36144 ft 482 kts 282°
2026-04-30 08:18 50.04688 15.92217 36305 ft 483 kts 282°
2026-04-30 08:19 50.04978 15.87013 36446 ft 484 kts 282°
2026-04-30 08:19 50.05544 15.76619 36490 ft 484 kts 282°
2026-04-30 08:20 50.06102 15.66215 36475 ft 483 kts 282°
2026-04-30 08:20 50.06651 15.55823 36477 ft 483 kts 282°
2026-04-30 08:21 50.07194 15.45382 36461 ft 484 kts 282°
2026-04-30 08:21 50.07727 15.34937 36485 ft 484 kts 282°
2026-04-30 08:22 50.08255 15.24416 36477 ft 484 kts 282°
2026-04-30 08:22 50.08769 15.13987 36479 ft 486 kts 282°
2026-04-30 08:23 50.09278 15.03478 36446 ft 487 kts 281°
2026-04-30 08:23 50.09773 14.93025 36498 ft 485 kts 282°
2026-04-30 08:24 50.10258 14.82585 36481 ft 485 kts 282°
2026-04-30 08:24 50.10737 14.72133 36483 ft 485 kts 281°
2026-04-30 08:25 50.11205 14.61689 36514 ft 485 kts 281°
2026-04-30 08:25 50.11663 14.51285 36518 ft 486 kts 282°
2026-04-30 08:26 50.12114 14.40778 36505 ft 486 kts 281°
2026-04-30 08:26 50.12553 14.30295 36503 ft 485 kts 281°
2026-04-30 08:27 50.12991 14.19683 36496 ft 486 kts 281°
2026-04-30 08:27 50.13412 14.09206 36508 ft 487 kts 281°
2026-04-30 08:28 50.13821 13.98732 36516 ft 487 kts 281°
2026-04-30 08:28 50.14222 13.88230 36503 ft 486 kts 280°
2026-04-30 08:29 50.14616 13.77673 36473 ft 488 kts 280°
2026-04-30 08:29 50.15000 13.67156 36455 ft 487 kts 281°
2026-04-30 08:30 50.15375 13.56630 36443 ft 486 kts 280°
2026-04-30 08:30 50.15744 13.46071 36451 ft 488 kts 280°
2026-04-30 08:31 50.16096 13.35558 36442 ft 487 kts 280°
2026-04-30 08:31 50.16452 13.24845 36436 ft 489 kts 279°
2026-04-30 08:32 50.16788 13.14300 36441 ft 489 kts 279°
2026-04-30 08:32 50.17119 13.03703 36447 ft 488 kts 279°
2026-04-30 08:33 50.17441 12.93102 36447 ft 489 kts 279°
2026-04-30 08:33 50.17751 12.82539 36452 ft 490 kts 279°
2026-04-30 08:34 50.18052 12.71901 36456 ft 489 kts 279°
2026-04-30 08:34 50.18342 12.61312 36450 ft 488 kts 279°
2026-04-30 08:35 50.18619 12.50771 36430 ft 487 kts 279°
2026-04-30 08:35 50.19065 12.40241 36421 ft 483 kts 284°
2026-04-30 08:36 50.20253 12.29835 36419 ft 476 kts 291°
2026-04-30 08:36 50.22176 12.19964 36417 ft 472 kts 297°
2026-04-30 08:37 50.24426 12.10356 36416 ft 471 kts 297°
2026-04-30 08:37 50.26655 12.00745 36431 ft 471 kts 297°
2026-04-30 08:38 50.28852 11.91192 36437 ft 471 kts 297°
2026-04-30 08:38 50.31068 11.81501 36436 ft 470 kts 297°
2026-04-30 08:39 50.33261 11.71873 36430 ft 472 kts 297°
2026-04-30 08:39 50.35439 11.62258 36432 ft 471 kts 297°
2026-04-30 08:40 50.37626 11.52557 36424 ft 471 kts 296°
2026-04-30 08:40 50.39807 11.42845 36413 ft 472 kts 296°
2026-04-30 08:41 50.41959 11.33208 36407 ft 471 kts 295°
2026-04-30 08:41 50.44142 11.23380 36406 ft 471 kts 295°
2026-04-30 08:42 50.46291 11.13667 36402 ft 472 kts 295°
2026-04-30 08:42 50.48433 11.03932 36403 ft 473 kts 295°
2026-04-30 08:43 50.50550 10.94257 36407 ft 472 kts 295°
2026-04-30 08:43 50.52683 10.84464 36413 ft 472 kts 295°
2026-04-30 08:44 50.54845 10.74755 36416 ft 470 kts 296°
2026-04-30 08:44 50.57051 10.65099 36416 ft 471 kts 296°
2026-04-30 08:45 50.59525 10.55597 36415 ft 466 kts 302°
2026-04-30 08:45 50.62454 10.46549 36419 ft 464 kts 304°
2026-04-30 08:46 50.65418 10.37572 36422 ft 464 kts 304°
2026-04-30 08:46 50.68384 10.28535 36415 ft 464 kts 303°
2026-04-30 08:47 50.71342 10.19468 36216 ft 464 kts 303°
2026-04-30 08:47 50.72824 10.14910 35980 ft 463 kts 303°
2026-04-30 08:47 50.74289 10.10390 35751 ft 461 kts 303°
2026-04-30 08:47 50.75731 10.05938 35447 ft 459 kts 303°
2026-04-30 08:48 50.77176 10.01459 34944 ft 458 kts 303°
2026-04-30 08:48 50.78620 9.96986 34229 ft 458 kts 303°
2026-04-30 08:48 50.80067 9.92493 33453 ft 459 kts 303°
2026-04-30 08:48 50.81509 9.88008 32665 ft 459 kts 303°
2026-04-30 08:49 50.82944 9.83544 31865 ft 460 kts 303°
2026-04-30 08:49 50.84385 9.79047 31048 ft 461 kts 303°
2026-04-30 08:49 50.85823 9.74545 30217 ft 461 kts 302°
2026-04-30 08:49 50.87235 9.69984 29643 ft 460 kts 300°
2026-04-30 08:50 50.88507 9.65362 29134 ft 459 kts 298°
2026-04-30 08:50 50.89746 9.60665 28606 ft 455 kts 298°
2026-04-30 08:50 50.90950 9.56053 28084 ft 452 kts 298°
2026-04-30 08:50 50.92137 9.51503 27562 ft 448 kts 298°
2026-04-30 08:51 50.93315 9.47000 27041 ft 444 kts 298°
2026-04-30 08:51 50.94494 9.42497 26519 ft 439 kts 298°
2026-04-30 08:51 50.95661 9.38041 26001 ft 436 kts 298°
2026-04-30 08:51 50.96808 9.33649 25484 ft 432 kts 297°
2026-04-30 08:52 50.97966 9.29213 24966 ft 428 kts 297°
2026-04-30 08:52 50.99094 9.24878 24461 ft 424 kts 297°
2026-04-30 08:52 51.00215 9.20556 23954 ft 421 kts 297°
2026-04-30 08:52 51.01316 9.16303 23455 ft 417 kts 297°
2026-04-30 08:53 51.02426 9.12008 22946 ft 414 kts 297°
2026-04-30 08:53 51.03518 9.07786 22436 ft 411 kts 297°
2026-04-30 08:53 51.04601 9.03582 21923 ft 409 kts 297°